STARLINK-6080, 56112

Orbit data source: Space-Track

STARLINK-6080, 56112 is a payload satellite owned by SpaceX/Seattle (US) in LEO that was launched on Wed, 29 Mar 2023 UTC via an FALCON 9 launch vehicle from the Air Force Eastern Test Range (AFETR). Payload-class satellites include a variety of spacecraft equipped with specific instruments for various scientific and technological missions. These include communications satellites like Starlink; space stations such as the ISS; scientific satellites like the Hubble; Earth observation satellites from companies like Planet Labs, Umbra, and HawkEye 360; GPS; miniature CubeSats for education and research; and military/defense satellites.

Loading next visibility...
Identifier
56112, 2023-046V
Orbit
LEO
Country
Flag of USUS
Related business
Manufacturer
SpaceX/Seattle
Mission
Operational Commercial Communications
Bus & Motor
STARLINK, Unknown motor
Mass
305 kg wet, ~290 kg dry
Launch date (UTC)
2023-03-29 (3 years ago)
Launch vehicle
FALCON 9
Launch site
Air Force Eastern Test Range (AFETR)
Object type
Payload
Rocket body
Debris
Shape & HBR
Box + 1 Pan, 10.1 m
Radar Cross Section
11.087 m², Large (>1 m²)

Expand to show TLE details & history
Last TLE update: 3 days ago

TLE from 3 days ago
0 STARLINK-6080
1 56112U 23046V   26170.86542860 -.00000154  00000-0  39232-5 0  9990
2 56112  43.0008 304.8890 0001267 275.3454  84.7253 15.27579349177657
Epoch: 2026-06-19T20:46Z
TLE epoch observation values (Epoch: 2026-06-19T20:46:13.031Z)
Latitude
-0°
Longitude
85.24643°
Altitude
482.747 km
Speed
7.626 km/s
True Right ascension
20h 19m 33s
True Declination
0° 00' 00"
Sunlit
Object was in full shadow at epoch
Visualization orbit readout
Latitude
Unknown
Longitude
Unknown
Altitude
Unknown
Speed
Unknown
Apparent Right ascension
Unknown
Apparent Declination
Unknown
Sunlit
N/A
Visualization observer readout
Local Sidereal Time
21:27:28
Azimuth
Unknown
Elevation
Unknown
Doppler factor
Unknown
Orbital elements
Apogee altitude
485.866 km
Perigee altitude
484.127 km
Semi-major axis
6,863.133 km
Eccentricity
0.00013
Inclination
43.0008°
RAAN
304.889°
Arg. of periapsis
275.3454°
True anomaly
84.73976°
Mean anomaly
84.7253°
Eccentric anomaly
84.73253°
Mean motion
3.81733 °/min
Orbital period
94.31 mins
BSTAR
0.0000039232
Loading maneuver chart data...
Computing Atmospheric mass density...
Loading historical data...
Loading historical data...
Loading historical data...
Loading historical data...
Loading historical data...
Loading historical data...
Loading historical data...

Documentation

Showing up to 5 results
|